Regional Weather Roundup
Issued by NWS State College, PA

Home | Current Version | Previous Version | Graphics & Text | Print | Product List | Glossary On
Versions: 1 2 3 4 5 6 7 8 9 10 11 12 13 14 15 16 17 18 19 20 21 22 23 24 25 26 27 28 29 30 31 32 33 34 35 36 37 38 39 40 41 42 43 44 45 46 47 48 49 50
957
ASUS41 KCTP 290510
RWRCTP

REGIONAL WEATHER ROUNDUP
NATIONAL WEATHER SERVICE STATE COLLEGE PA
100 AM EDT MON MAY 29 2017

Note: "fair" indicates few or no clouds below 12,000 feet with no
significant weather and/or obstructions to visibility.

* = STATION THAT DOES NOT REPORT PRECIPITATION /E.G. RAIN...SNOW...ETC/
    THUNDER OR FOG.

PAZ002>004-007>009-013>016-020>023-029>032-290600-
WESTERN PENNSYLVANIA

CITY           SKY/WX    TMP DP  RH WIND       PRES   REMARKS
ERIE           CLOUDY    63  59  87 S15G22    29.69F
MEADVILLE      LGT RAIN  60  59  96 S6        29.74F
FRANKLIN*      CLOUDY    61  55  82 S10       29.77F
NEW CASTLE     LGT RAIN  62  61  96 CALM      29.78S
BEAVER COUNTY  NOT AVBL
BUTLER*        CLOUDY    61  61 100 NE6       29.79S
PITTSBURGH INT LGT RAIN  66  64  93 NW6       29.77F FOG
PITTSBURGH     LGT RAIN  67  61  81 W7        29.77S
INDIANA*       FOG       61  61 100 E5        29.81F VSB 3/4
LATROBE        CLOUDY    68  64  88 SW10      29.77F
WASHINGTON CO* CLOUDY    66  61  82 SW6       29.80S
$$

PAZ004>006-010>012-017>019-024>028-033>037-041-042-045-046-049>053-290600-
CENTRAL PENNSYLVANIA

CITY           SKY/WX    TMP DP  RH WIND       PRES   REMARKS
BRADFORD       CLOUDY    59  59 100 SE9       29.76F
DUBOIS         LGT RAIN  60  58  92 CALM      29.80F FOG
CLEARFIELD     HVY RAIN  61  61 100 CALM      29.80F FOG
JOHNSTOWN      CLOUDY    62  60  93 S8        29.79F
ALTOONA        CLOUDY    62  61  96 SE7       29.81F
STATE COLLEGE  HVY RAIN  61  61  99 N3        29.81F
WILLIAMSPORT   LGT RAIN  64  62  93 E8        29.80F FOG
SELINSGROVE    CLOUDY    63  61  93 CALM      29.83F
FT INDIANTOWN  LGT RAIN  59  59 100 NE7       29.83F FOG
CAPITAL CITY   LGT RAIN  61  58  90 E9        29.83F
HARRISBURG     LGT RAIN  61  60  97 E8        29.82F
YORK           CLOUDY    61  61 100 E8        29.82F
$$

PAZ038>040-043-044-047-048-054-055-060>062-067>071-290600-
EASTERN PENNSYLVANIA

CITY           SKY/WX    TMP DP  RH WIND       PRES   REMARKS
SCRANTON       LGT RAIN  59  53  80 NE3       29.86S
MOUNT POCONO   LGT RAIN  51  51 100 E10       29.89F
ALLENTOWN      LGT RAIN  59  54  83 E7        29.87F
QUAKERTOWN*    CLOUDY    57  57 100 NE6       29.88F
READING        LGT RAIN  60  60 100 E7        29.85F
LANCASTER      LGT RAIN  61  60  97 E8        29.84F FOG
COATESVILLE    CLOUDY    59  59 100 E13       29.87S
POTTSTOWN      LGT RAIN  57  56  96 NE3       29.88F
BLUE BELL      CLOUDY    55  55 100 E3        29.87F
DOYLESTOWN     LGT RAIN  57  57 100 NE5       29.86F
WILLOW GROVE   NOT AVBL
NORTH PHILA    CLOUDY    60  57  89 E8        29.87F
PHILADELPHIA   CLOUDY    60  57  89 NE8       29.85F
$$




USA.gov is the U.S. government's official web portal to all federal, state and local government web resources and services.